Wind_Speed
59 58 57 55 54 52 51 49 48 48 48 48 48 47 46 46 45 44 43 43 42 41 40 39 37 36 35 33 32 30 27 24 23 22 19 18 17 16 15 16 15 15 15 14 13 13 12 11 11 12 12 12 11 10 9 8 6 5 5 5 6 8 9 9 10 10 11 11 10 8 7 6 6 5 6 6 6 8 10 12 12 12 11 10 11 11 13 15
60 60 59 58 57 56 54 53 52 51 50 50 49 49 48 47 47 46 45 44 43 43 42 40 39 38 36 35 33 32 30 27 25 24 22 21 20 19 18 17 17 17 16 16 15 15 14 14 13 13 13 13 13 12 11 10 9 7 7 6 7 9 10 11 11 12 12 12 11 8 5 5 8 8 8 8 7 8 10 13 12 12 12 12 13 13 14 16
61 61 61 61 60 59 58 57 55 54 53 52 51 51 50 49 48 47 47 46 45 44 43 42 40 39 38 36 35 34 32 29 27 26 25 24 23 22 21 20 19 19 18 18 17 17 17 16 15 15 14 15 15 14 13 12 12 10 10 9 8 9 10 11 12 13 13 13 13 11 8 7 9 10 11 12 10 9 9 10 11 12 14 14 14 13 13 15
60 61 61 61 61 61 61 60 59 58 57 55 54 53 53 51 50 49 48 47 47 46 45 43 42 40 39 38 37 36 34 32 30 28 27 27 26 25 24 23 21 21 21 20 19 19 19 18 18 17 16 16 16 16 15 14 14 13 12 12 11 11 12 12 12 13 14 14 15 14 13 12 11 11 13 13 12 10 8 9 11 14 16 14 13 12 13 15
61 61 61 61 61 62 62 62 61 61 60 59 58 57 56 55 53 52 51 50 49 48 47 45 44 42 41 41 40 38 37 35 33 31 30 30 29 28 27 26 24 23 23 22 22 22 21 21 20 19 18 18 18 18 18 17 16 16 15 14 14 14 14 14 14 14 15 15 16 16 17 17 15 13 14 13 12 11 11 12 14 15 15 12 11 13 14 15
62 62 61 61 61 61 61 62 62 63 62 62 61 60 59 58 57 56 54 53 52 51 50 48 47 45 44 44 43 42 40 38 36 34 34 34 33 32 31 29 27 26 26 25 25 24 23 23 22 21 20 20 20 20 19 19 18 18 17 16 16 16 16 16 16 16 16 17 17 17 18 18 19 18 18 17 15 14 14 15 15 15 14 13 14 16 16 15
63 62 62 62 62 61 61 61 62 62 63 63 63 62 62 61 60 59 58 57 56 55 53 52 50 49 48 47 46 45 44 42 40 38 37 37 37 35 34 33 30 29 29 28 28 27 25 25 24 24 23 22 21 21 21 20 20 19 19 19 18 18 18 18 18 18 18 18 18 18 18 19 20 21 22 22 21 19 18 18 17 14 14 15 16 17 17 15
63 63 63 63 62 62 61 61 61 61 62 62 63 63 63 63 62 62 61 60 59 58 57 55 54 53 52 51 50 49 47 45 43 42 41 41 40 39 38 36 34 33 32 32 31 29 28 27 26 26 25 24 23 22 22 22 22 21 21 21 20 20 20 20 20 20 20 20 19 19 18 19 20 22 23 24 23 22 21 20 19 17 16 16 17 18 17 15
63 63 63 63 62 62 62 62 62 61 61 62 62 62 62 62 62 62 62 62 61 60 59 58 57 56 55 54 53 52 50 49 47 45 44 44 43 42 41 40 37 36 36 35 34 32 30 29 28 28 27 26 25 24 24 23 24 23 23 23 23 22 22 22 22 22 22 21 21 20 20 19 20 21 22 23 23 22 21 20 20 19 18 18 18 17 15 13
64 63 63 63 62 62 62 62 62 62 62 62 61 61 61 61 61 62 62 62 62 61 61 60 59 58 57 57 56 55 53 51 49 48 47 46 46 45 44 43 41 39 38 37 36 34 33 32 31 30 30 29 28 26 25 25 26 26 25 25 25 25 24 24 24 24 24 23 23 23 22 21 20 21 22 23 23 22 21 21 21 20 20 19 18 16 12 12
63 63 63 63 63 62 62 62 62 62 62 62 62 62 61 61 60 60 60 60 60 60 60 59 59 58 58 57 57 56 54 52 51 50 49 48 48 47 46 45 44 42 41 39 38 36 35 34 34 34 33 32 30 29 28 27 28 28 28 27 26 27 26 26 26 26 26 26 25 25 24 23 22 22 22 23 22 22 21 21 21 21 21 19 18 16 12 12
63 63 63 63 63 62 62 62 62 62 62 62 62 62 62 61 61 60 60 60 59 59 58 58 57 57 57 56 56 55 54 52 51 50 50 49 48 48 47 47 45 44 42 41 39 38 37 37 36 36 36 34 33 31 30 30 30 31 30 29 28 28 28 28 28 28 28 27 27 27 26 25 24 23 23 23 23 22 21 21 21 20 20 18 17 17 14 10
62 62 62 62 62 62 61 62 61 61 62 62 62 62 62 62 61 61 61 60 60 59 58 57 57 56 56 56 55 54 52 51 50 49 49 49 48 48 47 47 46 45 43 41 40 39 39 38 38 38 38 36 35 34 33 32 32 33 33 31 31 31 31 30 30 30 30 29 29 28 27 26 25 24 23 23 22 22 21 20 19 19 18 16 16 17 15 10
62 61 61 61 61 60 60 60 61 61 61 61 62 62 62 62 62 62 61 61 60 60 59 58 57 57 56 56 54 53 51 50 49 49 49 48 47 46 46 46 45 44 43 41 40 39 39 39 39 39 39 38 36 35 35 34 35 34 34 34 33 33 33 33 32 32 31 31 30 29 29 28 26 25 24 23 21 20 20 19 18 18 16 14 14 15 14 10
61 61 61 60 60 59 58 59 59 59 59 60 61 61 61 61 61 61 61 61 61 60 60 59 58 58 57 56 55 53 52 50 50 49 49 47 46 45 45 45 44 44 43 41 40 39 39 39 39 40 39 38 37 36 36 36 36 36 36 35 35 35 35 34 34 33 33 32 31 30 29 29 27 25 24 23 21 20 19 17 16 16 13 11 12 12 11 9
61 60 60 59 59 58 57 57 57 57 58 58 58 59 60 61 61 61 61 61 61 61 60 60 59 59 58 57 56 54 53 52 51 49 48 47 46 46 45 45 44 43 42 42 41 39 38 38 39 39 39 37 36 35 35 35 36 36 36 36 36 36 36 35 34 34 33 32 31 30 30 29 28 26 24 22 20 19 18 16 14 14 12 10 10 10 11 9
59 59 59 58 58 57 57 56 56 56 56 56 56 57 58 59 60 60 60 60 60 60 60 60 60 60 59 58 57 56 54 53 51 50 49 48 47 47 46 45 44 44 44 44 42 39 38 38 38 39 38 37 35 34 34 34 35 36 36 37 37 36 36 36 34 34 33 32 31 31 30 29 27 26 24 22 20 18 18 16 14 13 13 11 10 10 11 11
58 58 57 57 56 56 56 56 56 56 55 55 55 55 56 56 57 58 59 59 59 59 59 60 60 60 60 59 58 56 55 54 52 52 51 50 49 48 47 46 46 45 46 46 43 40 39 38 38 39 38 37 35 34 33 33 34 35 36 36 37 37 37 36 35 34 34 33 31 30 29 28 27 26 24 22 20 18 17 17 15 15 15 14 12 11 11 11
57 57 56 55 55 55 55 55 56 56 55 55 54 54 54 55 55 56 57 57 58 58 58 58 59 59 59 59 58 57 56 55 54 53 52 52 51 50 48 48 47 47 47 47 44 42 40 40 39 39 39 37 36 35 34 33 34 35 36 35 36 36 36 35 34 34 34 33 31 30 29 27 27 25 24 22 20 17 17 17 17 17 18 17 15 14 14 12
56 56 56 55 55 55 54 54 55 55 55 55 54 54 54 54 54 54 54 55 56 56 57 57 57 58 58 57 57 56 56 55 54 54 54 53 53 52 51 50 49 49 49 48 46 44 43 42 41 40 40 39 37 36 34 33 33 34 35 35 35 36 35 33 33 32 32 32 31 30 28 26 26 25 24 21 19 17 15 17 18 19 20 20 18 17 17 15
55 55 55 54 54 55 54 54 55 55 55 55 55 55 54 54 54 53 53 53 54 55 55 56 56 57 57 56 56 56 55 55 55 54 55 55 54 53 52 51 51 50 50 49 47 46 45 43 42 42 42 41 39 37 35 34 34 35 35 35 35 35 34 32 31 30 30 30 29 29 28 26 25 25 24 21 19 16 15 16 18 19 21 21 20 18 17 16
53 53 53 53 53 55 54 54 55 55 55 55 55 55 55 53 53 52 52 52 52 53 53 53 54 55 55 55 55 55 55 55 55 55 55 55 55 54 53 52 52 52 51 50 50 48 46 45 44 43 43 43 40 38 36 36 35 36 35 35 35 35 33 31 29 28 28 28 28 28 27 26 25 24 24 22 19 17 16 17 18 20 21 22 22 19 19 17
52 51 51 50 52 53 52 53 54 54 54 55 55 55 54 53 53 52 51 51 51 51 51 51 52 52 53 53 54 54 54 54 54 54 55 55 54 54 54 53 53 52 52 52 51 49 47 46 45 45 45 43 41 40 38 37 36 36 36 35 36 35 34 31 29 27 27 28 28 28 26 25 24 24 24 23 20 18 17 18 19 20 20 22 24 22 20 19
51 50 49 49 50 51 50 51 52 53 53 54 54 54 53 53 53 52 51 50 50 50 49 49 49 50 51 51 52 53 53 53 54 53 53 54 54 54 54 53 53 53 53 52 51 49 48 47 47 46 45 43 42 41 40 38 37 37 37 36 35 35 34 31 29 27 27 28 28 28 26 24 23 23 24 23 21 19 18 19 19 20 20 21 24 25 23 20
50 49 48 49 49 49 49 50 50 51 51 51 51 51 51 51 51 51 50 50 50 49 48 48 48 48 49 49 49 50 51 52 52 52 52 52 53 53 53 53 53 52 52 51 50 49 49 48 47 46 45 44 43 42 41 40 39 38 37 36 34 34 33 31 29 28 27 28 28 27 26 24 23 23 23 23 22 20 19 19 19 20 20 20 23 26 26 22
49 49 49 49 49 49 49 49 49 49 49 49 49 48 48 48 48 48 48 49 49 49 48 48 47 47 47 46 47 48 48 49 50 50 50 50 51 51 51 51 51 51 51 50 49 49 48 48 47 47 46 45 44 43 43 43 41 39 38 36 35 34 34 31 29 29 28 27 27 28 27 25 24 23 23 23 22 21 20 19 19 20 20 19 21 24 26 25
48 48 49 49 49 49 49 49 49 49 48 48 47 46 46 45 45 46 46 47 48 48 49 49 48 47 46 46 46 46 46 47 47 47 47 47 48 48 49 48 48 49 49 48 48 48 48 47 47 46 46 46 45 45 45 44 43 40 38 36 35 35 34 32 31 30 29 28 27 28 27 26 25 24 23 23 22 21 20 19 19 19 19 18 19 21 24 24
46 47 48 48 48 48 49 49 49 48 48 47 46 46 45 44 44 44 43 44 46 47 48 48 48 47 47 47 47 46 46 45 45 45 45 45 45 45 46 46 46 47 47 47 47 47 46 46 46 46 47 47 46 45 45 44 43 40 37 35 34 34 32 32 32 33 31 29 27 27 27 27 26 25 23 23 23 22 21 20 19 20 19 18 18 20 23 24
44 45 46 46 46 47 48 48 48 48 48 47 46 46 45 44 44 43 43 43 44 45 45 46 46 46 46 46 46 45 45 44 44 44 44 44 44 44 44 45 45 46 46 46 46 45 45 45 45 46 47 47 46 45 45 44 41 38 36 34 33 31 31 33 34 33 32 30 27 27 27 27 27 26 24 23 23 23 22 21 20 20 20 18 18 20 23 25
41 42 43 44 44 45 45 45 46 46 46 46 45 45 44 44 43 43 43 43 42 42 42 42 42 42 43 43 43 43 43 43 44 43 43 43 43 44 44 45 46 46 45 44 44 44 44 43 44 46 47 47 46 45 44 41 39 37 35 33 31 30 31 33 33 33 31 29 28 28 28 28 29 28 26 24 24 24 23 22 22 21 20 19 18 19 23 25
36 38 39 40 41 42 42 42 43 43 43 43 43 43 43 43 43 43 43 42 41 40 39 39 39 39 40 40 41 41 42 42 42 42 42 42 43 43 44 45 45 44 43 42 42 43 43 42 44 46 46 45 45 44 41 39 38 37 35 33 31 31 32 32 32 32 31 29 29 29 29 29 29 29 27 25 24 24 24 24 24 23 22 20 19 20 23 26
30 32 34 35 36 37 37 38 39 39 40 40 40 41 41 41 41 41 40 39 38 38 37 37 38 38 38 39 39 40 41 41 41 41 41 41 42 42 43 43 43 42 42 41 42 42 43 44 45 45 44 44 43 42 40 39 39 38 36 35 34 34 33 32 32 32 30 29 30 30 30 30 29 29 28 26 25 24 25 25 25 25 24 22 20 20 23 26
25 27 28 29 30 31 32 33 34 35 36 36 37 37 38 38 38 37 37 36 36 36 36 36 36 37 37 37 38 38 39 39 40 40 39 39 40 40 41 41 41 41 41 40 41 42 43 44 44 43 43 42 42 41 40 40 40 39 37 36 36 36 34 32 33 32 30 30 31 31 31 30 30 29 29 28 27 26 26 26 26 27 27 24 22 21 22 25
21 22 23 24 25 26 27 28 29 30 31 31 32 32 32 33 33 33 32 32 32 32 32 33 33 34 34 34 35 35 36 36 37 37 37 37 37 38 39 39 39 39 40 40 41 42 42 42 42 42 41 41 41 40 40 40 40 39 38 38 37 36 34 33 32 32 32 32 32 32 31 31 30 30 30 30 29 28 27 27 27 28 28 27 24 22 22 24
18 19 20 21 22 23 23 24 25 25 26 26 26 27 27 27 27 27 27 28 28 28 29 29 30 30 30 30 30 31 32 32 33 33 33 34 34 35 37 37 37 38 39 40 40 40 40 40 40 40 40 41 40 40 40 40 40 40 39 38 37 35 34 33 33 33 34 34 33 32 31 32 31 31 31 31 30 29 28 28 28 28 28 28 26 24 23 24
17 18 19 19 20 21 21 21 21 22 22 22 22 22 22 22 23 23 23 23 23 24 24 24 25 25 25 26 26 27 28 29 29 30 30 31 31 32 34 34 35 36 36 37 37 37 38 38 39 39 40 39 38 39 39 40 39 39 39 37 35 34 34 34 34 35 35 34 33 33 32 32 32 32 31 31 31 30 30 29 29 29 28 28 27 25 24 25
18 19 19 19 19 19 19 18 18 18 18 18 18 18 18 18 18 18 18 18 18 19 19 20 20 21 21 22 23 24 25 26 27 27 28 28 29 30 31 32 33 33 34 35 36 36 37 38 38 38 37 37 37 38 39 39 39 38 37 36 35 35 35 34 34 34 34 34 34 33 33 33 33 32 32 31 31 31 31 30 29 29 29 29 28 26 25 25
17 18 18 18 19 18 17 16 15 15 15 15 15 15 15 15 15 15 15 14 15 16 16 16 16 17 19 20 21 22 23 24 25 26 26 27 27 28 30 30 31 32 33 34 34 35 36 36 36 36 36 36 37 38 37 37 37 36 35 35 36 36 35 33 33 33 33 33 33 33 33 33 33 33 32 31 31 31 31 30 29 29 29 29 29 27 25 25
17 17 17 17 17 17 17 16 15 14 14 14 14 14 14 14 14 13 13 12 12 12 13 13 14 16 17 19 20 21 22 23 24 25 25 26 27 28 28 29 30 31 32 32 33 34 34 34 34 34 35 35 36 36 36 36 36 35 35 36 37 36 33 32 32 32 32 32 33 33 33 33 33 33 32 31 31 31 31 30 30 29 28 29 29 28 26 25
18 18 17 17 17 17 17 17 17 16 15 15 15 14 14 13 12 11 11 11 10 10 10 11 12 13 14 16 17 18 19 21 22 23 24 25 26 27 28 29 30 30 30 30 31 32 33 33 33 33 33 33 33 34 35 36 36 36 36 36 36 34 33 32 31 30 30 31 32 33 33 33 32 32 33 32 30 30 31 31 30 30 29 29 29 29 28 26
17 17 17 17 17 17 18 19 19 18 17 15 14 14 13 13 12 12 11 11 10 7 7 7 8 10 10 11 12 14 16 18 20 22 23 24 26 27 27 28 29 29 30 30 30 31 31 31 31 32 32 32 32 33 35 36 36 35 35 35 34 34 33 32 30 29 29 30 32 33 32 32 33 33 33 31 30 30 31 31 31 30 30 29 29 30 30 28
17 17 17 17 18 18 18 20 20 20 19 18 16 15 15 15 14 14 13 13 11 8 7 7 7 6 7 8 9 11 14 16 18 20 21 22 24 25 26 27 29 29 29 29 29 29 30 30 31 31 32 32 33 34 34 34 34 34 34 33 33 33 33 31 28 27 28 30 32 32 31 31 32 32 32 31 30 31 31 31 31 31 30 30 30 31 30 29
20 20 20 20 20 19 19 20 22 22 22 21 19 18 17 16 15 15 15 14 13 11 9 7 4 2 3 5 7 8 10 13 15 17 18 20 21 23 24 26 28 29 29 29 29 29 30 31 31 32 32 32 33 33 33 33 33 33 32 32 32 32 31 28 26 26 27 30 32 32 32 31 31 31 31 31 31 31 31 31 31 31 31 31 32 31 30 29
23 23 23 23 23 22 21 21 22 23 23 22 22 21 19 18 17 16 16 16 15 13 11 9 7 5 2 1 3 4 6 8 9 11 13 16 19 21 23 25 26 27 28 28 28 29 31 31 32 32 32 32 32 32 32 33 32 31 30 30 30 29 28 26 26 27 29 30 32 33 33 31 31 30 31 30 31 31 31 31 32 32 32 32 33 32 31 30
21 22 23 24 24 24 22 22 23 24 24 24 24 23 22 20 18 15 15 15 15 15 14 13 11 10 8 6 5 4 3 3 3 5 7 10 13 17 20 22 24 25 26 26 27 29 30 31 32 32 32 31 31 31 31 31 30 29 29 29 29 28 27 27 27 29 30 31 32 33 33 32 31 30 30 30 30 31 31 32 32 32 32 33 33 33 31 30
21 21 21 22 23 24 24 24 24 25 25 25 24 23 22 21 19 15 13 13 15 16 16 15 14 13 12 11 11 11 10 9 7 5 2 2 4 7 11 15 19 21 23 24 25 27 29 29 31 31 31 31 30 30 30 30 30 29 29 29 29 29 29 29 29 29 29 29 31 33 33 32 31 30 30 30 31 32 32 32 31 31 32 32 33 33 31 31
25 23 23 23 23 24 25 25 25 25 25 24 23 22 21 20 19 17 14 13 15 17 18 17 15 15 15 15 15 15 15 14 13 12 10 7 4 1 3 7 11 14 16 18 20 23 25 27 28 29 30 30 30 30 30 29 29 30 30 30 29 29 29 30 30 30 29 29 32 34 34 33 31 30 31 31 32 33 33 32 31 31 31 32 32 32 31 31
27 27 27 27 27 26 26 25 25 24 24 23 23 22 21 20 20 18 16 14 14 15 17 17 16 16 16 16 16 17 17 16 16 16 15 13 10 7 4 1 3 5 7 10 14 17 21 23 24 26 27 28 28 28 28 29 29 30 30 29 29 29 30 31 31 31 30 32 34 34 34 34 34 33 32 33 34 34 33 32 32 32 32 32 32 33 32 32
30 30 30 30 30 29 28 27 26 25 24 23 23 22 20 19 19 17 16 14 13 13 14 15 16 15 15 16 16 16 16 17 17 17 17 16 15 14 11 8 5 2 0 4 7 11 14 18 20 22 23 24 26 27 29 30 30 29 29 28 28 29 30 31 31 31 32 34 34 34 34 35 37 36 34 34 35 35 34 33 33 33 33 33 33 33 33 33
31 30 30 29 29 30 29 28 27 25 24 22 21 20 19 18 17 16 15 14 12 12 12 13 14 14 14 14 15 15 15 15 16 17 17 17 17 17 16 15 13 10 6 3 2 4 7 10 14 17 19 20 23 26 29 30 30 28 27 27 28 28 29 29 29 30 32 34 34 35 35 36 38 38 35 34 35 35 35 34 34 35 34 34 34 33 34 34
30 30 30 30 30 29 28 27 25 24 22 21 19 18 17 17 17 16 15 13 12 11 11 11 12 13 13 13 13 13 13 14 15 15 16 16 17 17 17 17 17 15 13 9 6 3 2 4 7 10 12 15 19 23 26 28 28 28 27 28 28 27 27 27 28 29 30 31 32 34 35 37 39 39 37 35 35 36 36 35 35 35 34 34 34 34 34 35
30 31 31 31 30 28 26 25 24 22 21 20 19 17 16 15 15 14 13 12 10 9 9 10 10 10 10 11 11 11 11 12 12 13 14 14 15 15 16 17 17 17 16 15 12 9 6 2 2 4 6 10 14 17 21 24 26 26 26 27 26 25 25 26 26 27 27 28 30 32 35 37 39 40 39 37 36 36 36 36 36 35 34 34 35 34 35 36
Wind_Direction
244 245 245 245 245 245 245 246 246 247 248 249 249 250 251 252 253 254 255 257 258 259 261 262 264 266 267 269 270 270 270 269 271 271 269 270 267 264 262 259 258 259 258 259 261 265 267 269 270 270 270 269 269 271 274 277 274 283 295 289 283 284 288 291 288 282 281 282 284 282 269 273 300 306 303 305 311 319 324 322 313 308 315 323 329 328 325 326
243 244 244 245 245 245 246 246 246 247 248 249 250 250 251 252 253 254 255 256 257 258 260 261 262 263 265 266 267 268 268 268 268 269 268 269 268 265 263 260 259 260 258 258 261 263 265 267 267 268 269 269 268 267 270 275 274 273 278 281 282 282 283 285 286 285 286 288 290 282 271 294 306 295 279 279 287 299 317 329 321 316 324 325 323 321 318 324
243 243 244 244 245 245 246 246 246 247 247 248 249 250 251 252 252 253 254 255 256 257 258 259 260 262 263 264 265 265 266 266 266 267 267 268 268 266 264 262 260 261 259 259 261 262 264 265 266 267 266 266 266 264 265 270 273 271 271 275 281 283 284 287 287 287 287 288 290 282 273 286 295 287 276 274 278 283 297 322 329 332 335 327 320 320 319 328
243 243 243 243 244 244 245 245 246 247 247 248 248 249 250 251 252 253 254 254 256 257 257 258 259 260 261 262 263 264 264 265 265 266 267 268 268 267 266 263 261 262 261 260 261 262 262 263 265 266 266 265 264 262 260 263 268 269 270 273 278 281 284 288 291 291 287 285 283 281 275 274 277 277 274 272 274 274 276 297 311 323 327 320 320 326 327 331
243 243 243 243 243 244 244 245 246 246 247 247 248 249 250 251 252 253 253 254 255 256 257 257 258 259 260 261 262 263 264 264 264 265 266 268 268 267 266 264 262 263 263 262 262 261 261 263 264 266 266 265 262 260 258 258 263 267 268 271 274 278 283 286 289 292 291 287 281 277 274 272 271 271 274 274 271 267 266 278 294 310 315 309 321 332 330 329
244 244 244 243 243 243 244 244 245 246 246 247 248 249 250 250 251 252 253 254 254 255 256 257 258 258 259 260 261 262 263 264 264 264 265 267 267 267 267 265 264 264 265 264 263 262 262 263 264 265 265 264 262 260 258 256 259 265 268 269 273 277 282 285 288 290 291 292 288 281 274 271 270 269 273 276 275 273 271 279 293 306 308 303 314 325 324 322
245 245 244 244 244 244 244 244 245 245 246 247 247 248 249 250 251 252 253 254 254 255 256 257 257 258 259 259 260 261 262 263 263 264 265 266 267 267 267 266 265 265 266 265 264 263 262 262 263 264 263 262 262 261 259 257 257 261 267 269 272 276 279 282 285 288 290 291 292 288 280 273 270 270 273 275 276 278 278 283 293 298 302 304 308 316 318 317
246 246 245 245 245 244 244 244 245 245 246 246 247 248 249 250 251 252 253 254 254 255 256 256 257 258 259 259 260 261 261 262 263 263 264 266 266 267 267 266 265 265 266 266 265 263 262 262 262 263 263 262 262 262 261 259 257 257 263 267 269 272 275 278 281 284 287 288 290 289 286 279 272 270 271 273 273 276 278 282 288 290 295 303 306 309 310 314
247 247 247 246 246 245 245 245 245 245 246 246 247 247 248 249 250 251 252 253 254 255 256 256 257 258 258 259 260 260 261 262 262 263 264 265 266 266 266 266 265 265 266 265 264 263 262 262 262 263 263 263 262 262 261 261 260 257 259 263 266 269 271 275 277 280 283 286 288 288 286 282 276 271 269 271 271 272 275 280 285 286 290 300 308 306 302 309
248 247 247 247 247 246 246 246 246 246 246 246 247 247 248 248 249 251 251 252 253 254 255 256 257 257 258 259 260 260 261 261 262 263 264 265 265 266 266 266 265 265 265 264 264 263 264 263 264 264 263 263 261 261 261 261 262 260 259 261 266 268 270 273 276 278 281 284 287 288 287 284 278 273 270 269 269 270 273 277 281 284 287 293 304 303 300 311
249 248 248 248 247 247 247 247 246 247 247 247 247 247 248 248 249 250 251 252 253 254 255 255 256 257 258 258 259 260 260 261 262 262 263 264 265 265 265 265 265 264 264 265 265 264 264 264 264 264 263 262 261 261 261 262 263 264 262 261 264 268 270 272 275 278 280 283 286 287 288 286 282 276 271 270 270 270 272 275 280 283 286 287 293 295 299 311
250 249 249 248 248 247 247 247 247 247 247 247 248 248 248 248 249 249 250 251 252 253 254 255 255 256 257 258 258 259 260 261 261 262 262 262 263 264 264 264 265 265 265 265 266 266 265 265 264 263 262 261 261 261 261 262 263 265 265 264 264 267 269 271 274 277 279 282 284 286 287 286 284 278 273 271 271 272 272 276 279 282 286 285 284 284 287 300
250 250 250 249 249 248 248 248 248 247 247 247 248 248 248 249 249 249 250 251 252 252 253 254 255 255 256 257 257 258 259 260 260 261 261 261 261 262 263 264 264 265 265 265 265 266 266 266 265 263 262 260 260 261 262 262 263 264 264 265 266 267 269 271 273 275 277 280 282 285 285 285 283 279 275 272 271 273 273 275 278 281 286 284 279 276 273 277
251 250 250 250 249 249 248 248 248 248 248 248 248 248 248 248 249 249 250 250 251 252 253 253 254 255 255 256 257 257 258 258 259 259 259 260 260 262 263 264 264 264 264 264 264 265 265 264 263 262 261 260 260 261 262 262 262 263 264 265 266 267 268 270 272 274 277 279 281 283 283 283 282 279 276 272 270 271 272 273 277 282 282 275 275 274 267 263
250 250 250 250 250 249 249 249 248 248 248 248 248 248 248 248 248 249 249 250 250 251 252 252 253 254 255 255 256 256 257 257 257 258 259 260 260 261 262 262 263 263 264 263 263 262 262 262 262 262 261 260 261 262 263 263 263 264 265 265 266 267 269 270 272 274 276 278 280 281 281 281 280 278 274 272 269 267 268 270 276 280 275 270 277 273 259 252
250 250 250 251 251 250 250 249 249 248 248 248 247 247 248 248 248 248 248 249 249 250 251 251 252 253 254 254 255 255 255 256 256 258 258 259 259 259 260 261 262 263 263 262 260 260 262 263 263 263 262 261 262 263 264 265 266 265 265 265 266 267 268 269 271 273 275 277 278 279 279 279 279 277 273 270 266 262 264 266 270 272 264 263 271 261 249 246
249 249 250 250 250 251 251 250 250 249 249 248 247 247 247 247 247 247 248 248 248 249 250 250 251 252 252 253 254 254 255 255 256 256 257 257 257 258 259 260 261 261 261 261 261 261 262 263 264 265 264 264 264 265 266 267 268 266 265 265 265 266 267 268 270 272 273 274 275 276 276 276 276 275 271 268 263 259 259 260 263 262 249 248 257 254 250 247
249 249 249 249 249 249 250 250 250 250 249 249 248 247 247 247 247 247 247 247 247 248 249 249 250 251 252 252 253 254 254 254 255 255 256 256 257 257 258 259 259 260 261 261 261 262 263 263 264 265 265 265 265 265 265 267 267 267 265 264 264 265 266 267 269 270 271 271 272 273 273 274 272 271 268 265 261 256 256 255 254 250 240 238 246 249 248 244
248 249 248 248 248 248 248 248 249 249 249 249 248 248 247 246 246 246 246 246 247 247 248 249 249 250 251 251 252 253 253 253 254 255 255 256 256 256 256 257 258 259 260 261 262 263 263 262 262 264 264 264 264 264 264 265 266 267 267 266 265 265 265 267 268 269 270 270 270 270 270 269 268 267 264 262 259 254 253 252 245 241 236 231 235 243 246 243
248 248 248 248 248 247 247 246 247 248 248 248 248 248 247 246 246 245 245 246 246 246 247 248 248 249 250 251 251 252 252 253 253 254 255 255 255 255 256 256 257 258 259 261 262 263 262 261 261 263 264 264 263 263 264 265 266 267 267 267 265 265 264 265 267 268 270 270 270 269 268 266 264 263 261 257 256 251 249 247 240 236 234 228 228 236 241 240
247 247 247 247 247 247 246 246 246 246 246 247 247 247 247 246 246 246 246 245 245 246 246 247 248 249 250 250 251 251 252 252 252 253 253 254 254 255 255 256 257 257 258 260 261 261 261 261 261 262 263 263 263 264 264 265 264 264 265 266 266 265 264 265 266 268 269 270 269 268 267 264 261 260 258 254 252 248 242 241 238 235 232 226 222 227 235 236
246 246 246 246 246 246 246 246 246 245 245 245 246 246 246 247 247 247 246 246 246 246 246 247 247 248 249 250 251 251 251 252 252 252 253 253 254 255 255 256 256 257 258 258 259 259 260 261 261 262 262 263 264 264 263 263 263 263 263 264 265 264 264 264 264 265 266 267 266 265 263 261 259 257 255 252 248 244 239 238 238 236 232 225 219 221 228 230
246 245 245 245 245 245 245 245 245 245 245 245 245 246 246 246 247 246 247 247 247 247 247 247 247 248 249 250 250 251 251 251 252 252 253 254 254 254 255 255 256 256 257 257 258 259 259 260 260 260 261 262 263 263 262 262 261 261 261 261 262 264 264 263 262 261 261 261 261 261 260 259 258 256 253 250 246 243 239 237 236 234 232 226 221 219 221 222
245 245 244 244 244 244 244 244 244 244 244 244 245 245 245 246 246 246 246 247 247 247 247 247 248 248 248 249 249 250 251 251 252 252 252 253 253 254 254 255 255 255 256 257 257 258 258 258 259 259 260 261 261 261 260 259 258 258 259 259 261 263 264 264 262 259 257 258 259 260 260 259 257 254 251 247 243 241 240 239 236 233 231 228 223 220 220 219
244 244 243 243 242 243 243 242 243 243 243 244 244 245 245 245 246 246 246 246 247 247 247 247 247 248 248 249 250 250 251 251 252 252 252 252 253 253 254 254 254 255 255 256 256 257 257 257 257 257 258 257 257 257 257 256 255 255 256 257 258 261 262 262 261 259 256 256 257 259 259 257 255 251 248 245 241 239 240 240 237 233 231 229 225 223 223 222
242 242 242 241 241 241 242 242 242 242 243 243 244 245 245 246 246 246 245 245 246 247 247 247 247 248 248 249 250 250 251 251 251 251 251 252 252 252 253 253 254 254 254 254 254 254 254 254 254 254 254 254 254 254 254 254 253 253 253 254 255 257 259 259 258 257 255 254 255 256 256 254 252 249 245 243 241 238 238 239 237 233 232 232 228 224 223 222
239 240 240 240 240 240 241 241 241 242 242 243 244 244 245 245 246 246 245 245 245 246 246 246 247 247 248 249 249 250 250 251 251 251 251 252 252 252 252 252 252 252 252 252 252 252 251 251 252 252 252 252 252 252 253 253 253 253 253 254 254 255 258 259 258 255 253 252 252 253 254 253 251 249 245 242 240 238 237 238 237 233 232 234 232 226 220 219
237 237 238 238 239 239 239 240 241 241 242 242 243 243 244 245 245 245 245 244 245 245 245 246 246 247 248 249 250 250 251 252 252 252 252 252 252 252 252 252 251 250 250 249 249 250 250 250 250 250 250 250 250 251 252 253 254 255 255 256 256 258 260 260 258 255 253 250 250 252 254 254 252 250 246 241 238 236 235 237 238 235 231 232 232 227 220 217
235 235 236 236 236 237 238 238 239 240 241 241 242 242 243 243 244 244 244 244 244 245 245 246 247 248 249 250 251 252 253 254 254 254 254 253 253 253 253 252 250 249 248 247 248 248 248 248 247 248 249 249 249 250 251 252 255 257 258 258 259 260 260 259 258 257 254 252 250 250 252 253 252 249 245 241 236 234 233 234 235 235 232 229 229 225 219 216
233 233 233 234 234 234 235 236 237 238 239 240 241 241 242 242 242 243 243 243 245 246 247 248 249 249 250 251 253 254 255 255 255 255 254 254 254 253 252 251 250 249 248 248 248 248 247 247 247 247 248 248 248 249 250 253 255 256 256 257 258 258 257 257 257 257 255 253 251 249 249 250 251 250 247 242 237 232 230 229 230 230 229 228 227 223 219 216
230 230 231 231 232 232 233 234 235 236 237 238 239 239 240 241 241 242 243 244 245 247 248 249 250 251 251 252 253 253 254 254 255 254 254 253 252 251 250 249 249 249 249 249 249 248 248 247 246 246 247 248 249 250 251 253 253 252 252 251 250 250 250 251 253 254 253 251 250 249 248 248 249 251 249 245 240 234 228 226 226 224 224 225 224 221 219 216
225 226 226 227 228 229 230 231 232 233 234 235 236 237 238 239 240 242 243 245 246 248 248 249 250 251 251 251 252 252 253 253 253 253 252 251 251 250 249 248 248 248 248 248 247 247 246 246 245 245 246 248 249 250 250 250 250 249 248 246 245 244 245 245 248 250 249 248 247 246 246 247 248 249 249 246 242 237 230 225 225 223 220 220 221 220 218 216
218 219 221 222 223 224 225 227 228 229 230 232 233 235 237 238 240 242 244 245 246 247 248 249 249 250 250 251 251 252 252 252 252 252 251 250 249 249 248 247 246 246 246 245 245 245 244 244 244 245 245 246 247 248 248 248 248 248 247 245 244 243 243 243 244 246 247 245 243 242 242 244 245 246 248 247 243 239 233 227 225 224 221 219 219 220 219 217
210 212 213 215 216 218 219 221 223 224 226 228 231 232 235 237 239 241 242 243 245 246 247 247 248 249 249 250 250 251 251 251 251 250 250 249 248 248 247 246 245 244 244 243 242 242 243 244 244 245 245 245 246 246 246 247 247 247 246 245 243 243 242 242 243 244 244 243 242 240 240 241 241 242 243 244 242 239 236 230 226 225 223 221 219 220 221 219
201 202 204 206 208 210 213 214 216 218 220 223 225 227 229 232 234 236 238 240 241 242 243 244 245 246 246 247 247 247 248 248 248 248 248 247 246 246 246 245 244 243 242 242 242 242 243 244 244 245 244 244 244 244 244 245 245 246 246 245 245 244 244 243 242 241 241 242 241 240 239 239 239 239 239 241 241 239 237 232 228 226 225 223 220 219 223 223
193 193 195 198 200 203 205 208 209 211 213 216 218 220 222 225 228 231 233 235 237 239 240 241 242 242 242 243 243 244 245 245 245 245 245 244 243 243 244 243 243 242 242 242 242 242 242 242 242 242 243 243 244 244 244 244 245 245 245 246 246 246 245 243 242 242 242 242 242 241 239 239 238 238 238 238 239 239 237 234 229 226 225 223 222 221 223 225
187 188 189 191 193 195 197 200 203 205 207 210 212 214 215 217 220 223 226 229 230 232 234 236 238 239 240 240 241 242 243 243 243 243 242 242 242 242 242 242 241 241 241 240 240 239 239 239 239 240 242 242 243 243 243 244 244 245 246 247 247 245 244 244 244 245 245 245 244 242 241 240 239 238 238 238 238 238 237 235 231 227 225 223 221 222 224 225
180 181 183 184 185 185 186 187 189 193 196 197 199 201 203 205 206 208 212 217 221 224 226 229 234 237 239 240 240 240 240 242 242 242 241 241 240 240 241 241 241 240 239 238 238 238 239 239 239 240 241 241 241 242 243 243 244 245 246 246 246 245 244 245 245 246 247 247 246 244 242 241 240 239 238 237 237 238 238 237 234 230 228 225 222 222 224 225
168 170 172 174 174 173 171 170 172 176 178 180 181 184 187 189 191 194 199 205 211 217 222 226 231 235 237 239 240 240 240 240 240 240 240 239 239 238 238 239 240 239 239 238 238 238 239 239 239 239 239 240 241 242 242 242 242 242 242 242 244 245 245 245 245 246 247 248 247 246 244 242 241 240 239 237 236 237 238 238 236 234 231 228 224 223 224 226
161 163 165 166 165 164 162 161 160 161 162 166 169 171 174 177 178 179 184 189 195 202 213 221 228 235 238 239 241 242 243 243 242 241 239 239 239 238 237 238 238 239 239 239 238 238 238 237 237 237 238 238 240 241 241 240 240 239 239 240 242 243 243 243 244 245 246 247 247 246 244 243 241 240 240 238 236 235 236 236 236 235 232 230 227 226 226 227
161 162 161 159 158 158 158 156 152 150 152 157 160 161 162 162 162 162 166 168 169 177 201 219 231 237 241 242 243 244 244 244 244 244 242 240 239 238 238 238 238 239 238 237 237 238 238 238 237 236 235 235 237 238 238 239 239 239 239 240 241 242 242 242 242 243 245 246 246 245 244 243 242 240 240 239 237 235 235 234 235 234 232 230 228 227 227 228
157 156 152 150 151 151 152 151 148 147 148 150 151 152 152 153 151 153 156 153 148 160 186 201 214 227 239 246 247 246 244 242 241 241 240 239 239 239 238 238 239 238 238 238 237 237 238 238 237 236 235 234 234 235 236 238 239 240 240 241 242 243 243 243 241 240 243 245 245 245 244 243 242 241 240 239 238 237 235 234 233 232 231 230 229 227 226 228
152 150 148 147 146 147 150 152 148 145 144 145 145 145 145 146 148 150 149 143 144 156 164 163 160 183 247 256 250 246 246 245 244 243 242 240 240 240 240 240 240 240 239 238 237 236 236 236 236 235 235 234 234 235 236 237 237 238 240 240 241 242 244 244 242 239 239 242 244 244 243 241 241 241 241 240 239 238 236 235 233 231 230 229 229 228 226 225
151 151 150 149 146 146 149 150 144 140 139 140 140 139 137 139 143 146 145 141 141 140 130 118 108 98 101 216 228 225 227 233 236 239 241 241 240 239 239 238 239 240 241 241 240 239 238 238 237 237 236 235 235 236 237 238 238 238 239 240 241 242 243 242 240 238 237 238 240 242 241 239 238 238 238 239 238 238 237 235 234 232 229 228 228 227 225 223
149 150 149 146 145 144 143 141 138 136 137 137 136 135 136 137 139 143 146 143 135 125 115 110 105 97 89 84 83 89 114 155 188 206 222 231 235 238 240 240 239 239 240 241 241 241 240 239 239 239 238 237 237 237 239 240 241 240 239 239 240 240 239 237 237 237 237 238 240 242 242 239 237 236 236 237 238 237 236 235 234 232 230 227 226 225 223 221
141 141 141 141 140 139 138 138 138 138 137 138 138 139 140 139 137 138 141 138 129 120 113 107 102 96 88 80 73 69 68 68 69 74 91 196 225 238 244 245 243 242 241 241 241 242 242 241 241 240 240 239 238 238 239 240 241 241 240 239 238 237 237 236 235 236 238 241 243 245 245 242 238 236 235 235 236 236 235 234 233 232 230 227 224 222 221 219
139 139 139 137 136 136 138 139 140 140 140 140 140 140 140 137 134 131 130 128 123 118 111 103 97 91 84 77 73 69 66 64 63 61 59 57 60 48 252 248 246 245 244 243 242 243 244 244 244 243 241 240 238 238 239 239 240 241 241 240 239 238 238 237 236 235 235 238 241 242 243 243 240 235 233 233 234 234 234 233 232 231 230 228 224 221 218 218
143 142 140 138 137 138 139 140 142 142 142 142 140 138 138 136 133 129 124 120 117 115 110 104 97 90 83 78 74 70 68 65 64 63 61 60 59 60 55 349 248 244 244 243 242 241 242 243 244 245 244 242 238 237 237 238 238 239 241 241 241 240 238 238 237 235 233 234 236 239 241 242 240 235 231 230 232 233 233 232 231 230 230 229 226 221 218 218
144 143 144 144 143 143 144 145 147 146 145 144 141 139 139 137 134 129 125 119 116 113 109 104 98 92 86 81 75 71 68 66 64 62 60 58 57 57 57 56 56 55 266 251 248 244 243 242 241 241 242 241 238 235 234 234 234 235 237 238 239 239 239 239 238 236 234 234 235 237 239 242 243 239 233 231 232 233 232 232 230 229 228 227 226 223 218 217
147 147 148 148 147 148 150 151 150 147 145 143 140 139 139 136 131 127 123 119 117 114 109 103 98 92 85 78 74 70 66 63 61 60 58 56 53 52 52 52 52 53 53 40 292 260 253 250 247 243 241 239 236 235 235 234 232 232 233 234 235 237 238 238 237 236 236 236 236 235 236 238 242 241 237 233 233 233 232 231 230 230 228 227 226 223 219 217
150 150 150 150 150 152 154 152 149 147 146 142 140 142 142 138 134 130 126 124 121 117 109 101 94 89 83 76 70 66 62 59 58 54 53 52 50 48 47 46 47 48 48 47 44 29 308 268 260 255 250 243 238 237 237 236 234 232 231 232 233 235 237 238 237 237 237 237 237 236 235 237 240 241 238 234 233 234 233 232 231 230 229 228 226 224 221 218
154 153 153 153 154 156 156 153 150 150 148 144 143 147 147 143 139 136 132 128 125 119 109 98 89 80 76 74 70 66 60 57 56 53 49 46 44 44 44 42 41 43 43 44 45 45 41 18 294 264 255 247 244 242 239 237 237 236 235 234 234 235 237 239 239 238 237 236 236 236 236 237 239 241 239 235 233 233 233 233 232 231 230 229 228 226 224 221
Height
10958 10960 10962 10964 10966 10967 10969 10971 10972 10973 10974 10975 10976 10978 10979 10980 10981 10983 10985 10986 10987 10988 10990 10991 10993 10994 10995 10996 10997 10997 10999 11001 11002 11002 11003 11004 11005 11006 11007 11007 11008 11009 11010 11011 11011 11012 11012 11013 11013 11013 11013 11014 11014 11015 11015 11015 11016 11016 11015 11015 11015 11015 11015 11015 11015 11014 11014 11014 11014 11014 11014 11014 11014 11014 11012 11010 11011 11011 11011 11011 11010 11010 11010 11010 11010 11010 11009 11008
10953 10955 10957 10959 10961 10963 10965 10967 10968 10970 10971 10972 10973 10974 10975 10977 10978 10979 10981 10983 10984 10985 10986 10988 10990 10991 10992 10993 10994 10995 10996 10998 11000 11000 11001 11002 11003 11004 11005 11006 11007 11007 11008 11009 11010 11010 11011 11011 11012 11012 11012 11012 11013 11014 11014 11014 11014 11015 11015 11015 11015 11015 11014 11014 11014 11014 11014 11013 11014 11014 11014 11014 11014 11014 11013 11012 11012 11012 11011 11011 11010 11010 11010 11010 11010 11010 11009 11009
10947 10950 10952 10954 10956 10958 10960 10962 10964 10965 10967 10968 10969 10970 10972 10973 10975 10976 10977 10979 10980 10981 10983 10985 10987 10988 10989 10990 10991 10992 10994 10995 10997 10998 10999 11000 11000 11001 11003 11004 11005 11006 11007 11008 11009 11009 11009 11010 11010 11011 11011 11011 11012 11013 11013 11012 11013 11014 11014 11014 11014 11014 11014 11014 11014 11013 11013 11012 11013 11013 11013 11014 11013 11013 11013 11012 11012 11012 11012 11012 11011 11010 11010 11010 11010 11010 11010 11009
10942 10944 10946 10949 10951 10953 10955 10958 10959 10961 10962 10964 10965 10966 10968 10969 10971 10972 10974 10976 10977 10978 10980 10982 10983 10985 10986 10987 10988 10989 10991 10993 10994 10996 10997 10997 10998 10999 11000 11001 11003 11004 11005 11006 11007 11007 11007 11008 11009 11009 11010 11010 11011 11011 11012 11011 11011 11012 11012 11012 11013 11013 11013 11013 11013 11012 11012 11012 11012 11012 11012 11013 11013 11012 11012 11011 11012 11012 11012 11012 11011 11011 11010 11010 11010 11010 11010 11009
10936 10938 10941 10943 10945 10948 10950 10952 10954 10956 10958 10959 10961 10962 10964 10965 10967 10968 10970 10972 10973 10974 10976 10978 10980 10982 10983 10984 10985 10986 10988 10990 10992 10993 10994 10995 10995 10996 10997 10999 11001 11002 11003 11004 11004 11005 11006 11006 11007 11008 11008 11009 11009 11009 11010 11010 11010 11010 11011 11011 11011 11011 11011 11011 11011 11011 11012 11011 11011 11011 11011 11011 11011 11011 11010 11010 11012 11012 11012 11012 11011 11011 11010 11010 11010 11010 11010 11009
10930 10933 10935 10937 10940 10942 10945 10947 10949 10951 10953 10955 10956 10958 10959 10961 10962 10964 10966 10967 10969 10970 10972 10974 10976 10978 10979 10980 10981 10983 10985 10986 10988 10991 10992 10992 10992 10993 10994 10996 10998 10999 11000 11001 11002 11003 11004 11005 11005 11006 11006 11006 11007 11007 11008 11009 11009 11009 11009 11010 11010 11010 11010 11010 11010 11010 11011 11011 11010 11010 11010 11009 11009 11009 11009 11008 11010 11011 11010 11010 11011 11010 11010 11010 11010 11010 11010 11009
10924 10927 10929 10931 10934 10937 10939 10941 10943 10945 10947 10949 10951 10953 10955 10956 10958 10960 10961 10962 10964 10966 10968 10970 10972 10974 10975 10976 10978 10979 10981 10983 10985 10987 10988 10989 10989 10990 10991 10993 10995 10997 10997 10998 10999 11000 11002 11003 11003 11004 11004 11004 11005 11006 11006 11008 11008 11008 11007 11008 11008 11009 11009 11009 11009 11009 11009 11009 11009 11009 11009 11008 11008 11008 11007 11006 11008 11010 11009 11009 11010 11010 11010 11010 11010 11010 11009 11009
10918 10921 10923 10926 10928 10931 10934 10936 10938 10940 10942 10944 10946 10948 10950 10951 10953 10955 10956 10957 10959 10961 10963 10966 10967 10969 10971 10972 10973 10975 10977 10979 10982 10983 10985 10986 10986 10987 10988 10989 10991 10993 10994 10995 10996 10997 10999 11000 11001 11001 11002 11002 11003 11004 11004 11005 11006 11006 11006 11006 11007 11007 11007 11007 11007 11007 11008 11008 11008 11008 11008 11008 11007 11007 11006 11005 11006 11008 11008 11008 11009 11009 11009 11009 11009 11009 11009 11009
10912 10915 10917 10920 10923 10925 10928 10930 10932 10935 10936 10939 10941 10943 10945 10946 10948 10950 10951 10953 10954 10956 10959 10961 10963 10964 10966 10967 10969 10971 10973 10975 10978 10980 10981 10982 10983 10984 10985 10986 10988 10990 10991 10991 10993 10994 10996 10997 10998 10999 10999 11000 11001 11002 11002 11003 11003 11004 11004 11004 11005 11006 11006 11005 11006 11006 11006 11006 11007 11007 11007 11007 11007 11006 11005 11004 11005 11006 11007 11007 11008 11008 11009 11009 11009 11009 11009 11009
10906 10909 10911 10914 10917 10920 10922 10925 10927 10929 10931 10933 10935 10937 10939 10941 10943 10945 10946 10948 10949 10952 10954 10956 10958 10959 10961 10962 10964 10966 10968 10971 10974 10976 10978 10978 10979 10980 10981 10982 10984 10985 10987 10988 10990 10992 10993 10994 10995 10996 10996 10997 10998 10999 11000 11001 11001 11001 11002 11003 11003 11003 11004 11003 11003 11004 11004 11004 11004 11005 11005 11006 11005 11005 11004 11003 11004 11005 11005 11006 11007 11007 11008 11008 11008 11008 11008 11008
10900 10902 10905 10908 10911 10914 10917 10919 10921 10923 10925 10927 10930 10932 10934 10936 10938 10940 10941 10943 10944 10946 10949 10951 10953 10954 10956 10957 10959 10961 10964 10967 10969 10971 10973 10974 10975 10976 10977 10978 10979 10981 10983 10985 10986 10988 10990 10991 10992 10992 10993 10994 10995 10997 10998 10998 10998 10998 10999 11000 11001 11001 11001 11001 11001 11001 11002 11002 11002 11002 11003 11003 11003 11003 11003 11002 11002 11003 11004 11005 11005 11006 11006 11007 11007 11008 11008 11008
10893 10896 10898 10901 10904 10908 10911 10913 10915 10917 10920 10922 10924 10926 10928 10931 10933 10935 10936 10938 10939 10941 10943 10946 10948 10949 10950 10952 10954 10956 10960 10963 10965 10967 10968 10969 10970 10971 10972 10974 10975 10977 10979 10981 10983 10984 10986 10987 10988 10988 10989 10991 10992 10994 10995 10995 10996 10995 10995 10997 10998 10999 10999 10999 10999 10999 10999 11000 11000 11000 11000 11001 11001 11001 11001 11000 11000 11001 11002 11003 11004 11004 11005 11005 11006 11006 11007 11007
10887 10889 10892 10895 10898 10902 10905 10907 10909 10911 10914 10916 10918 10920 10923 10925 10927 10929 10931 10933 10934 10936 10939 10941 10942 10944 10945 10947 10950 10952 10956 10958 10960 10962 10963 10964 10966 10967 10968 10970 10972 10973 10975 10978 10979 10980 10981 10982 10983 10984 10986 10987 10989 10991 10992 10992 10993 10993 10993 10994 10995 10995 10996 10996 10996 10997 10997 10997 10998 10998 10998 10998 10998 10999 10999 10999 10998 10999 11000 11001 11002 11002 11003 11003 11004 11004 11005 11006
10880 10883 10886 10889 10892 10895 10898 10901 10903 10905 10908 10910 10912 10915 10917 10919 10921 10924 10926 10928 10929 10931 10933 10935 10937 10938 10940 10942 10945 10948 10951 10953 10955 10956 10958 10960 10962 10964 10965 10966 10968 10969 10970 10973 10975 10976 10977 10977 10979 10980 10981 10984 10986 10987 10988 10989 10990 10990 10990 10991 10992 10992 10992 10993 10994 10994 10994 10995 10995 10995 10995 10995 10996 10996 10997 10997 10997 10997 10998 11000 11000 11000 11001 11001 11001 11002 11003 11005
10874 10877 10880 10883 10886 10889 10892 10894 10897 10899 10902 10904 10906 10909 10911 10913 10916 10918 10920 10922 10924 10926 10928 10930 10931 10933 10935 10937 10941 10943 10946 10948 10950 10951 10953 10956 10959 10960 10961 10962 10963 10964 10966 10969 10970 10971 10972 10973 10975 10975 10977 10981 10983 10984 10985 10986 10986 10987 10987 10988 10988 10989 10989 10990 10990 10991 10991 10992 10993 10992 10992 10992 10993 10994 10994 10995 10996 10996 10996 10998 10999 10998 10999 11000 11000 11001 11002 11003
10868 10871 10874 10877 10880 10883 10886 10888 10890 10893 10896 10898 10900 10902 10905 10907 10910 10912 10914 10917 10919 10921 10922 10924 10926 10928 10929 10932 10935 10938 10941 10943 10945 10947 10949 10952 10954 10955 10956 10958 10959 10960 10962 10963 10965 10967 10969 10970 10971 10972 10974 10977 10979 10981 10982 10982 10983 10983 10984 10984 10985 10985 10986 10986 10987 10988 10988 10989 10990 10990 10989 10989 10990 10991 10992 10993 10994 10994 10995 10996 10997 10996 10997 10998 10999 11000 11001 11002
10862 10865 10868 10871 10874 10877 10880 10882 10884 10887 10889 10892 10894 10896 10899 10901 10903 10906 10908 10911 10913 10915 10916 10918 10920 10922 10924 10927 10930 10933 10935 10938 10941 10943 10944 10946 10948 10950 10952 10954 10955 10956 10956 10957 10960 10964 10965 10966 10967 10968 10970 10973 10976 10977 10978 10979 10979 10979 10980 10981 10981 10982 10982 10983 10985 10985 10985 10986 10987 10987 10987 10987 10987 10988 10989 10991 10992 10992 10993 10994 10995 10995 10996 10996 10997 10999 10999 11001
10856 10859 10862 10866 10869 10871 10874 10876 10878 10880 10883 10885 10888 10890 10892 10895 10897 10900 10902 10905 10907 10909 10911 10912 10915 10916 10919 10922 10925 10927 10930 10933 10936 10937 10939 10941 10944 10946 10948 10949 10950 10951 10952 10953 10956 10960 10961 10962 10964 10964 10966 10969 10971 10973 10975 10975 10975 10974 10975 10977 10978 10979 10979 10981 10982 10982 10982 10983 10984 10984 10984 10985 10985 10986 10987 10988 10990 10990 10991 10992 10993 10994 10995 10994 10995 10997 10998 10999
10850 10853 10856 10860 10863 10865 10868 10870 10872 10874 10876 10879 10881 10884 10886 10888 10891 10893 10896 10899 10901 10903 10905 10907 10909 10911 10913 10917 10919 10922 10925 10928 10930 10932 10934 10936 10938 10940 10943 10944 10945 10947 10947 10948 10952 10955 10957 10958 10960 10961 10962 10965 10967 10969 10971 10972 10972 10971 10971 10973 10975 10975 10976 10978 10979 10979 10980 10980 10981 10982 10982 10982 10982 10983 10984 10986 10988 10988 10989 10990 10991 10992 10993 10993 10994 10996 10997 10998
10844 10847 10850 10854 10856 10858 10861 10864 10865 10867 10870 10873 10875 10877 10879 10881 10884 10887 10890 10893 10895 10897 10899 10902 10904 10905 10908 10911 10914 10917 10919 10922 10925 10927 10929 10930 10932 10934 10937 10939 10940 10942 10943 10945 10948 10950 10951 10954 10956 10957 10958 10960 10962 10964 10967 10968 10969 10968 10967 10969 10970 10971 10973 10975 10976 10976 10977 10978 10979 10979 10980 10980 10980 10980 10982 10984 10986 10987 10987 10988 10989 10990 10991 10992 10993 10995 10996 10997
10838 10841 10844 10847 10850 10851 10855 10858 10859 10861 10864 10867 10869 10870 10872 10875 10878 10882 10885 10887 10889 10891 10894 10897 10899 10900 10903 10906 10908 10911 10914 10916 10919 10921 10923 10924 10926 10929 10932 10934 10935 10937 10938 10941 10943 10944 10946 10949 10951 10953 10954 10955 10957 10961 10963 10964 10965 10964 10964 10965 10965 10966 10969 10971 10973 10973 10974 10975 10976 10976 10977 10978 10978 10978 10979 10981 10983 10985 10986 10986 10987 10989 10990 10991 10992 10994 10995 10996
10832 10834 10838 10842 10844 10845 10849 10851 10852 10855 10858 10860 10862 10864 10867 10871 10873 10876 10879 10881 10884 10886 10889 10892 10894 10896 10898 10901 10903 10906 10908 10910 10913 10915 10917 10919 10921 10924 10926 10928 10929 10932 10934 10936 10937 10939 10942 10944 10946 10948 10949 10950 10953 10956 10958 10959 10960 10960 10960 10961 10961 10962 10965 10968 10970 10970 10971 10971 10972 10973 10974 10975 10975 10976 10977 10979 10981 10983 10984 10985 10986 10987 10988 10990 10991 10993 10994 10995
10826 10829 10832 10836 10837 10839 10843 10845 10846 10849 10852 10854 10856 10859 10863 10866 10868 10871 10874 10876 10879 10882 10884 10887 10889 10892 10894 10896 10898 10900 10902 10904 10907 10910 10912 10914 10916 10918 10920 10922 10924 10927 10929 10930 10932 10935 10937 10939 10941 10943 10944 10946 10949 10951 10953 10955 10956 10955 10956 10958 10958 10959 10961 10965 10967 10968 10967 10967 10967 10969 10971 10973 10974 10974 10975 10976 10978 10980 10982 10983 10984 10985 10986 10988 10990 10991 10992 10993
10820 10824 10828 10830 10831 10833 10837 10839 10841 10843 10846 10848 10851 10854 10858 10860 10863 10866 10869 10871 10874 10876 10879 10882 10885 10887 10888 10891 10893 10895 10897 10899 10901 10904 10907 10908 10910 10912 10914 10916 10918 10921 10923 10924 10927 10930 10932 10934 10936 10938 10940 10942 10944 10945 10947 10949 10950 10951 10952 10954 10955 10956 10958 10961 10963 10965 10965 10964 10964 10966 10968 10971 10972 10972 10973 10973 10975 10977 10979 10981 10982 10983 10984 10986 10988 10990 10990 10991
10815 10819 10822 10824 10825 10828 10831 10833 10835 10838 10840 10843 10846 10849 10853 10855 10858 10862 10865 10867 10869 10871 10874 10877 10880 10881 10883 10886 10888 10890 10891 10893 10896 10898 10901 10903 10905 10907 10908 10910 10912 10915 10917 10920 10922 10924 10927 10929 10930 10932 10934 10936 10938 10939 10941 10942 10944 10946 10948 10950 10952 10953 10954 10957 10959 10961 10962 10962 10962 10963 10965 10967 10969 10970 10971 10971 10973 10975 10977 10978 10979 10980 10982 10984 10986 10988 10989 10990
10810 10813 10815 10817 10820 10823 10826 10828 10830 10833 10836 10838 10841 10845 10848 10851 10854 10857 10860 10862 10864 10867 10869 10872 10874 10876 10879 10882 10883 10885 10886 10888 10890 10893 10895 10897 10900 10901 10903 10905 10908 10910 10911 10914 10916 10919 10921 10923 10924 10926 10928 10930 10932 10933 10934 10936 10938 10942 10944 10947 10949 10949 10950 10953 10955 10956 10958 10959 10960 10961 10962 10964 10965 10967 10968 10969 10970 10972 10974 10976 10977 10978 10980 10981 10983 10985 10987 10988
10805 10807 10809 10812 10815 10818 10821 10823 10826 10829 10831 10834 10838 10842 10844 10847 10850 10852 10855 10857 10859 10861 10864 10866 10869 10871 10874 10876 10878 10879 10881 10882 10885 10887 10890 10892 10894 10896 10898 10900 10902 10904 10906 10908 10910 10912 10915 10917 10919 10921 10923 10924 10926 10928 10929 10930 10933 10937 10941 10944 10946 10946 10947 10949 10951 10952 10954 10956 10957 10958 10959 10960 10962 10964 10966 10968 10969 10970 10971 10973 10975 10977 10978 10979 10981 10983 10985 10986
10799 10801 10804 10807 10810 10813 10816 10818 10821 10824 10827 10830 10834 10837 10840 10843 10845 10847 10850 10852 10854 10856 10858 10861 10864 10867 10869 10871 10873 10875 10877 10879 10881 10883 10885 10887 10889 10891 10893 10895 10897 10898 10900 10902 10905 10907 10910 10912 10914 10916 10917 10918 10921 10923 10924 10926 10930 10934 10939 10941 10943 10944 10946 10946 10946 10947 10949 10952 10954 10956 10956 10958 10959 10961 10964 10965 10967 10968 10969 10971 10973 10974 10976 10978 10980 10981 10983 10985
10794 10796 10799 10802 10806 10808 10811 10814 10817 10820 10823 10826 10829 10832 10836 10838 10841 10843 10845 10847 10849 10851 10854 10857 10860 10863 10865 10867 10868 10871 10873 10875 10876 10878 10880 10883 10885 10886 10888 10889 10891 10892 10894 10897 10900 10903 10905 10907 10910 10910 10911 10913 10916 10918 10920 10923 10927 10932 10935 10938 10941 10943 10943 10942 10942 10943 10946 10949 10952 10953 10953 10954 10956 10958 10960 10962 10964 10966 10968 10969 10971 10972 10973 10975 10977 10980 10981 10983
10789 10792 10795 10798 10801 10804 10807 10810 10813 10816 10819 10822 10826 10829 10831 10834 10836 10839 10840 10842 10845 10847 10850 10853 10856 10859 10861 10863 10865 10866 10868 10870 10871 10873 10876 10878 10880 10881 10882 10883 10884 10886 10889 10893 10896 10898 10900 10903 10905 10905 10905 10908 10911 10914 10917 10921 10925 10928 10931 10934 10937 10938 10938 10938 10938 10940 10943 10946 10948 10949 10950 10951 10952 10954 10957 10959 10961 10963 10965 10967 10969 10970 10971 10973 10975 10977 10979 10981
10786 10789 10791 10794 10797 10800 10804 10807 10810 10813 10816 10819 10822 10824 10827 10829 10832 10834 10836 10839 10842 10845 10848 10850 10853 10855 10857 10859 10860 10862 10863 10864 10866 10868 10870 10872 10873 10874 10876 10877 10879 10882 10886 10889 10892 10894 10896 10898 10899 10899 10901 10905 10907 10910 10914 10918 10920 10922 10925 10929 10931 10932 10933 10934 10935 10936 10939 10942 10943 10944 10946 10947 10948 10950 10953 10956 10958 10960 10962 10964 10966 10967 10969 10970 10972 10974 10977 10979
10783 10786 10788 10791 10794 10798 10801 10804 10807 10810 10813 10815 10818 10821 10823 10826 10829 10831 10834 10837 10840 10842 10845 10847 10849 10851 10853 10854 10855 10857 10858 10859 10860 10862 10864 10866 10867 10868 10870 10872 10875 10878 10881 10884 10886 10888 10890 10891 10892 10894 10898 10901 10904 10907 10910 10912 10914 10917 10920 10923 10925 10926 10928 10930 10931 10931 10935 10938 10939 10940 10942 10944 10945 10947 10949 10952 10955 10957 10959 10961 10963 10965 10966 10968 10970 10972 10974 10977
10781 10783 10786 10789 10792 10795 10798 10801 10804 10807 10809 10812 10815 10818 10820 10823 10826 10829 10832 10834 10837 10839 10841 10843 10845 10846 10848 10850 10851 10852 10852 10854 10855 10857 10859 10861 10862 10863 10865 10867 10870 10873 10876 10878 10880 10881 10883 10885 10887 10891 10894 10897 10900 10902 10905 10907 10909 10912 10915 10918 10920 10922 10925 10927 10927 10928 10931 10933 10934 10936 10938 10940 10942 10944 10946 10948 10951 10953 10955 10958 10960 10961 10963 10965 10968 10970 10972 10974
10780 10782 10785 10788 10791 10793 10796 10799 10802 10805 10807 10810 10813 10816 10819 10821 10824 10827 10829 10832 10834 10836 10838 10839 10841 10842 10844 10845 10846 10847 10848 10849 10851 10853 10855 10857 10858 10859 10860 10862 10865 10868 10870 10872 10873 10876 10878 10881 10884 10887 10890 10892 10895 10898 10900 10903 10904 10907 10910 10912 10915 10917 10921 10923 10925 10926 10927 10928 10929 10932 10934 10936 10938 10940 10942 10944 10946 10949 10951 10954 10956 10958 10960 10963 10965 10967 10970 10972
10779 10782 10784 10787 10789 10792 10795 10797 10800 10803 10806 10809 10811 10814 10817 10819 10822 10824 10826 10828 10830 10832 10834 10835 10837 10838 10840 10841 10842 10843 10844 10845 10847 10848 10850 10852 10854 10855 10856 10858 10861 10863 10864 10866 10869 10872 10875 10877 10880 10883 10885 10887 10890 10893 10895 10897 10899 10902 10904 10907 10910 10914 10917 10920 10921 10922 10922 10924 10926 10929 10930 10932 10934 10936 10938 10940 10942 10945 10948 10950 10953 10955 10957 10960 10962 10965 10967 10969
10779 10781 10783 10786 10788 10791 10794 10797 10800 10802 10805 10808 10810 10813 10815 10818 10820 10822 10824 10826 10828 10829 10831 10832 10834 10835 10837 10838 10839 10840 10841 10842 10843 10845 10846 10848 10849 10851 10852 10854 10856 10858 10861 10863 10866 10868 10871 10873 10875 10877 10880 10883 10886 10889 10891 10893 10895 10897 10900 10903 10907 10911 10913 10915 10917 10917 10919 10921 10923 10925 10926 10928 10930 10933 10934 10936 10939 10941 10944 10946 10949 10952 10954 10956 10959 10961 10964 10966
10778 10780 10783 10785 10788 10791 10794 10797 10800 10802 10805 10807 10810 10812 10814 10816 10818 10820 10822 10824 10826 10827 10829 10830 10831 10833 10834 10835 10836 10837 10838 10839 10840 10841 10843 10844 10846 10848 10849 10850 10852 10855 10857 10859 10861 10863 10866 10868 10871 10873 10877 10880 10882 10884 10886 10889 10891 10893 10897 10901 10903 10905 10908 10911 10913 10914 10916 10918 10920 10921 10923 10925 10927 10929 10931 10933 10936 10938 10940 10943 10946 10949 10951 10954 10956 10958 10961 10963
10778 10781 10783 10785 10788 10791 10794 10797 10800 10802 10805 10807 10809 10811 10814 10816 10817 10819 10821 10823 10824 10826 10827 10828 10829 10830 10831 10832 10833 10834 10835 10836 10837 10838 10839 10841 10843 10844 10845 10847 10849 10851 10853 10855 10857 10859 10862 10864 10868 10871 10873 10875 10877 10879 10882 10885 10888 10891 10894 10896 10898 10900 10903 10907 10909 10911 10913 10914 10916 10918 10920 10922 10924 10926 10928 10930 10932 10934 10937 10940 10943 10946 10949 10951 10953 10956 10958 10960
10779 10782 10784 10786 10788 10791 10794 10796 10799 10802 10804 10806 10808 10811 10813 10815 10816 10818 10820 10822 10823 10825 10826 10826 10827 10827 10828 10829 10830 10831 10832 10832 10833 10835 10836 10838 10839 10841 10842 10844 10845 10847 10849 10852 10854 10856 10859 10862 10865 10867 10869 10871 10874 10876 10879 10881 10884 10887 10889 10891 10892 10896 10900 10903 10905 10907 10909 10911 10913 10914 10916 10919 10921 10923 10925 10927 10930 10932 10934 10937 10940 10942 10945 10948 10951 10953 10955 10957
10780 10782 10784 10787 10789 10792 10794 10796 10798 10801 10803 10806 10808 10810 10812 10814 10816 10818 10820 10821 10822 10823 10824 10824 10825 10825 10826 10827 10828 10829 10829 10830 10831 10832 10833 10835 10836 10837 10839 10840 10842 10844 10846 10849 10851 10853 10855 10858 10861 10863 10866 10868 10870 10872 10874 10876 10879 10882 10884 10887 10889 10892 10896 10899 10901 10904 10906 10907 10908 10910 10913 10915 10918 10919 10921 10924 10927 10929 10931 10934 10936 10939 10942 10945 10948 10950 10952 10954
10781 10783 10785 10787 10790 10792 10794 10796 10798 10801 10803 10806 10808 10811 10813 10814 10816 10818 10819 10820 10821 10821 10822 10823 10824 10824 10825 10825 10826 10827 10827 10828 10828 10829 10831 10832 10833 10834 10836 10838 10839 10841 10843 10846 10848 10850 10853 10855 10858 10860 10862 10864 10866 10868 10870 10872 10875 10878 10881 10884 10887 10889 10892 10895 10898 10901 10903 10904 10904 10906 10910 10912 10914 10916 10918 10921 10924 10926 10928 10930 10933 10935 10938 10941 10944 10946 10948 10951
10782 10784 10786 10789 10791 10793 10795 10797 10799 10801 10803 10806 10809 10811 10812 10814 10816 10817 10818 10819 10819 10820 10822 10822 10823 10823 10823 10823 10824 10824 10824 10825 10825 10826 10827 10829 10830 10831 10833 10835 10836 10838 10840 10842 10845 10848 10850 10852 10854 10856 10858 10861 10862 10864 10866 10869 10872 10876 10879 10882 10885 10887 10889 10893 10896 10899 10900 10900 10901 10903 10906 10909 10911 10913 10916 10918 10921 10923 10925 10927 10929 10931 10934 10937 10939 10942 10945 10948
10783 10785 10787 10789 10792 10794 10796 10798 10799 10801 10804 10806 10808 10810 10812 10814 10815 10817 10817 10818 10819 10821 10821 10822 10822 10822 10822 10822 10822 10822 10822 10823 10823 10824 10825 10826 10828 10829 10831 10832 10833 10835 10837 10839 10842 10844 10846 10847 10850 10852 10854 10857 10859 10861 10863 10866 10869 10873 10876 10879 10881 10884 10887 10891 10894 10896 10896 10896 10897 10899 10902 10905 10908 10911 10913 10916 10918 10920 10922 10924 10926 10928 10930 10932 10934 10937 10941 10944
10784 10786 10788 10790 10792 10794 10797 10799 10801 10802 10804 10806 10808 10810 10812 10814 10815 10816 10817 10818 10819 10820 10821 10821 10822 10822 10823 10822 10822 10822 10822 10822 10822 10822 10823 10824 10825 10826 10827 10829 10830 10832 10834 10836 10839 10841 10842 10844 10847 10849 10851 10854 10856 10859 10861 10863 10866 10870 10873 10876 10878 10882 10885 10888 10891 10891 10892 10892 10893 10894 10897 10901 10904 10907 10910 10912 10915 10916 10919 10920 10922 10924 10927 10929 10931 10933 10936 10940
10787 10788 10790 10792 10794 10796 10798 10801 10802 10803 10805 10807 10808 10810 10812 10813 10815 10817 10818 10818 10819 10819 10820 10821 10822 10822 10823 10822 10822 10821 10821 10821 10821 10821 10822 10822 10823 10824 10825 10826 10827 10829 10831 10834 10836 10837 10839 10841 10844 10845 10848 10851 10854 10857 10859 10862 10865 10868 10871 10873 10876 10879 10881 10884 10886 10887 10888 10889 10890 10890 10893 10896 10900 10903 10907 10909 10911 10912 10914 10916 10918 10921 10923 10925 10927 10930 10933 10936
10789 10791 10793 10795 10796 10798 10800 10802 10803 10804 10806 10807 10809 10811 10812 10814 10815 10818 10819 10819 10819 10819 10820 10821 10822 10822 10823 10822 10822 10821 10821 10820 10820 10820 10821 10822 10823 10824 10824 10825 10826 10827 10829 10831 10833 10834 10836 10838 10840 10843 10845 10849 10852 10855 10857 10860 10862 10865 10867 10870 10872 10874 10876 10879 10881 10882 10885 10887 10887 10887 10889 10892 10896 10900 10903 10905 10906 10908 10909 10912 10914 10916 10919 10922 10924 10927 10930 10933
10789 10791 10794 10796 10799 10800 10802 10803 10804 10806 10807 10809 10811 10813 10814 10815 10816 10818 10820 10821 10820 10820 10820 10821 10822 10822 10823 10823 10822 10822 10822 10821 10821 10821 10821 10822 10822 10823 10824 10824 10825 10826 10828 10829 10831 10832 10834 10836 10838 10840 10843 10846 10849 10852 10855 10857 10860 10862 10864 10866 10869 10871 10873 10875 10877 10879 10881 10883 10883 10883 10885 10888 10892 10896 10899 10900 10901 10902 10905 10908 10910 10913 10915 10918 10921 10924 10927 10930
10789 10791 10794 10796 10799 10801 10803 10804 10806 10807 10809 10811 10812 10814 10816 10817 10817 10819 10820 10821 10822 10821 10821 10822 10822 10823 10823 10824 10824 10824 10823 10823 10823 10823 10823 10823 10823 10824 10824 10824 10825 10825 10826 10827 10829 10830 10832 10833 10836 10838 10841 10844 10847 10849 10851 10854 10856 10858 10860 10863 10865 10867 10869 10870 10872 10875 10877 10877 10878 10879 10881 10884 10886 10890 10893 10895 10896 10898 10900 10904 10906 10909 10911 10914 10917 10920 10924 10927
10790 10792 10794 10796 10798 10800 10802 10804 10806 10808 10810 10812 10813 10815 10817 10818 10819 10820 10821 10822 10823 10823 10823 10823 10824 10824 10825 10825 10825 10825 10825 10825 10825 10825 10825 10825 10825 10825 10825 10825 10825 10825 10826 10826 10827 10828 10830 10831 10833 10835 10838 10841 10845 10846 10847 10849 10851 10853 10856 10859 10861 10863 10864 10866 10869 10871 10872 10873 10874 10876 10879 10880 10881 10884 10888 10891 10892 10894 10897 10900 10902 10904 10907 10909 10912 10916 10920 10922
10792 10794 10796 10798 10800 10801 10803 10804 10807 10809 10811 10813 10815 10816 10818 10819 10820 10822 10823 10824 10824 10824 10824 10824 10825 10826 10826 10826 10827 10827 10827 10827 10827 10827 10827 10827 10827 10827 10827 10827 10827 10826 10826 10827 10827 10828 10829 10830 10832 10833 10836 10839 10842 10843 10844 10845 10847 10850 10853 10855 10857 10858 10860 10863 10865 10867 10868 10870 10872 10873 10875 10875 10876 10878 10883 10887 10889 10891 10893 10896 10898 10900 10903 10905 10908 10911 10915 10917
10793 10795 10797 10799 10801 10803 10804 10806 10808 10810 10813 10814 10816 10817 10818 10819 10821 10822 10823 10824 10825 10825 10825 10825 10826 10826 10827 10828 10828 10828 10829 10829 10828 10828 10828 10828 10828 10828 10828 10828 10828 10828 10828 10828 10828 10828 10829 10829 10831 10833 10835 10837 10839 10840 10842 10843 10845 10847 10849 10851 10853 10855 10857 10859 10861 10863 10865 10867 10869 10870 10871 10872 10872 10874 10878 10882 10885 10887 10889 10891 10894 10896 10900 10903 10905 10907 10910 10913
10794 10796 10798 10800 10801 10803 10805 10808 10810 10811 10813 10815 10816 10817 10818 10820 10821 10822 10823 10824 10825 10826 10826 10826 10826 10827 10827 10828 10828 10829 10829 10830 10830 10830 10830 10829 10829 10830 10830 10830 10830 10830 10830 10829 10829 10829 10829 10830 10830 10832 10833 10835 10837 10839 10840 10841 10843 10845 10847 10848 10850 10853 10855 10856 10858 10860 10862 10863 10865 10866 10867 10868 10869 10869 10872 10877 10880 10882 10885 10887 10890 10894 10897 10900 10902 10904 10906 10908